DELTA 1 DEB, 42636

Orbit data source: Space-Track

DELTA 1 DEB, 42636 is space debris in SSO originally from a launch on Thu, 12 Jun 1975 UTC launched from the Air Force Western Test Range (AFWTR). Debris objects in space refer to the collection of defunct objects orbiting the Earth. Examples of debris include non-operational satellites, rocket bodies, and fragments generated from explosions, collisions, or faulty payload assembly.

Loading next visibility...
Identifier
42636, 1975-052LV
Orbit
SSO
Country
Flag of USUS
Related business
Manufacturer
Unknown
Mission
Spacecraft
Bus & Motor
Unknown
Mass
Unknown
Launch date (UTC)
1975-06-12 (50 years ago)
Launch vehicle
Unknown
Launch site
Air Force Western Test Range (AFWTR)
Object type
Payload
Rocket body
Debris
Shape & HBR
Unknown
Radar Cross Section
Small (<0.1 m²)

Expand to show TLE details & history
Last TLE update: 2 days ago

TLE from 2 days ago
0 DELTA 1 DEB
1 42636U 75052LV  25258.03811686  .00000168  00000-0  47776-3 0  9994
2 42636  99.6896 101.2615 0131347  96.1477  56.3752 13.22076780569609
Epoch: 2025-09-15T00:54Z
TLE epoch observation values (Epoch: 2025-09-15T00:54:53.296Z)
Latitude
25.84347°
Longitude
-81.98951°
Altitude
1,125.745 km
Speed
7.318 km/s
True Right ascension
19h 03m 55s
True Declination
25° 42' 55"
Sunlit
Object was in daylight at epoch
Visualization orbit readout
Latitude
Unknown
Longitude
Unknown
Altitude
Unknown
Speed
Unknown
Apparent Right ascension
Unknown
Apparent Declination
Unknown
Sunlit
N/A
Visualization observer readout
Local Sidereal Time
10:56:05
Azimuth
Unknown
Elevation
Unknown
Doppler factor
Unknown
Orbital elements
Apogee altitude
1,273.332 km
Perigee altitude
1,074.939 km
Semi-major axis
7,552.272 km
Eccentricity
0.01313
Inclination
99.6896°
RAAN
101.2615°
Arg. of periapsis
96.1477°
True anomaly
57.63988°
Mean anomaly
56.3752°
Eccentric anomaly
57.0064°
Mean motion
3.30694 °/min
Orbital period
108.86 mins
BSTAR
0.00047776
Loading maneuver chart data...
Computing Atmospheric mass density...
Loading historical data...
Loading historical data...
Loading historical data...
Loading historical data...
Loading historical data...
Loading historical data...
Loading historical data...

Documentation

Showing up to 5 results
|